[[{"header":{"parameterUnit":"m.s-1","parameterCategory":1,"la1":30.2991,"la2":30.254,"lo1":-89.0895,"lo2":-89.0444,"dy":0.0017,"dx":0.0017,"nx":28,"ny":28,"refTime":"2025-05-27T03:00:00:Z","depth":0,"parameterNumber":2,"parameterNumberName":"U-component_of_WINDS"},"data":[0,0,0,0,0,0,0,0,0,0,0,0,0,0,0,0,0,0,0,0,0,0,0,0,0,0,0,0,0,0,0,0,0,0,0,0,0,0,0,0,0,0,0,0,0,0,0,0,0,0,0,0,0,0,0,0,0,0,1.7917,1.792,0,1.8147,1.815,1.8152,1.8217,1.8215,1.8214,1.8213,1.8453,1.846,1.8468,0,0,0,0,0,0,0,0,0,0,0,0,0,1.7536,1.7543,1.7917,1.792,1.7923,1.8147,1.815,1.8153,1.8217,1.8215,1.8214,1.8212,1.845,1.8459,1.8468,0,0,0,0,0,0,0,0,0,0,0,0,0,1.7727,1.7545,1.7916,1.7981,1.799,1.8146,1.815,1.8154,1.8217,1.8215,1.8213,1.8211,1.8447,1.8458,1.8469,1.8579,0,0,1.8504,1.8509,0,0,0,0,0,0,0,0,1.7717,1.7741,1.7969,1.7977,1.7987,1.8151,1.8104,1.8297,1.8218,1.8131,1.8213,1.8211,1.8354,1.8373,1.8421,1.859,1.8601,1.8505,1.8512,1.8517,1.852,0,0,0,0,0,0,0,1.7703,1.7732,1.8008,1.7972,1.7983,1.8,1.8025,1.814,1.8251,1.8138,1.8144,1.817,1.8359,1.841,1.8427,1.8604,1.8505,1.8515,1.8522,1.8527,1.8874,1.8877,0,0,0,0,0,0,1.7678,1.772,1.8001,1.8015,1.7844,1.8009,1.8037,1.81,1.825,1.8271,1.8171,1.8172,1.8391,1.8413,1.8435,1.8573,1.8517,1.8528,1.8534,1.8872,1.8875,1.8877,0,0,0,0,0,0,1.767,1.7703,1.7992,1.7869,1.7907,1.8017,1.8088,1.8106,1.8157,1.8274,1.8295,1.8203,1.839,1.8419,1.8542,1.8583,1.8533,1.8543,1.8869,1.8873,1.8876,1.885,0,0,0,0,0,0,1.7659,1.7699,1.7742,1.787,1.7914,1.8094,1.8091,1.8112,1.8176,1.8179,1.8309,1.8329,1.8391,1.8525,1.8554,1.8597,1.8552,1.8866,1.8871,1.8875,1.8848,1.8852,1.8856,0,0,0,0,0,1.7645,1.7726,1.7743,1.7777,1.7968,1.8096,1.8121,1.819,1.8179,1.8223,1.8298,1.8325,1.8573,1.8537,1.857,1.8618,1.8864,1.8869,1.8875,1.8846,1.8851,1.8856,0,0,0,0,0,0,1.7602,1.7744,1.7765,1.789,1.798,1.8106,1.8164,1.8193,1.829,1.8289,1.8371,1.8399,1.8517,1.858,1.8537,1.8731,1.8719,1.8731,1.8686,1.8692,1.8696,1.8679,1.8562,0,0,0,0,0,1.7607,1.7697,1.7817,1.7916,1.796,1.8054,1.8112,1.8156,1.8254,1.8293,1.8377,1.8472,1.8571,1.8635,1.8733,1.8856,1.8886,1.8905,1.8909,1.8912,1.8922,1.8992,1.9002,1.8895,1.8895,1.8895,0,0,1.7619,1.7707,1.776,1.7909,1.7985,1.8077,1.8086,1.8184,1.8254,1.8308,1.8429,1.8494,1.8605,1.8728,1.8787,1.8784,1.8958,1.8919,1.892,1.8929,1.8998,1.9008,1.9017,1.8899,1.8898,1.8898,0,0,1.7687,1.7763,1.7853,1.7927,1.804,1.8102,1.8123,1.8245,1.829,1.8412,1.8454,1.8539,1.8708,1.8785,1.8846,1.8941,1.897,1.8971,1.8993,1.9059,1.9068,1.9076,1.911,1.9121,1.898,1.898,1.898,0,1.7688,1.7828,1.7896,1.7992,1.8056,1.8107,1.8199,1.8269,1.8408,1.8452,1.8447,1.8659,1.8737,1.8879,1.8902,1.895,1.8977,1.8957,1.9061,1.9069,1.9078,1.9111,1.9124,1.8979,1.8979,1.8979,1.8979,0,1.7823,1.7919,1.7979,1.811,1.8181,1.8274,1.8357,1.8421,1.8459,1.8521,1.8644,1.874,1.8857,1.8894,1.8933,1.9041,1.9036,1.9044,1.9034,1.9086,1.9119,1.9132,1.8978,1.8979,1.8979,1.8979,0,0,1.7874,1.8039,1.806,1.8119,1.8246,1.8323,1.8418,1.8531,1.8584,1.8678,1.8761,1.8901,1.8909,1.8979,1.9026,1.9085,1.9153,1.9087,1.909,1.9096,1.9279,1.9272,1.9286,1.9172,1.9175,1.9177,1.927,0,1.7958,1.8129,1.8192,1.8333,1.8423,1.8471,1.8554,1.8642,1.8702,1.8787,1.8855,1.8953,1.8956,1.8998,1.9058,1.9132,1.9191,1.9126,1.9251,1.9255,1.9223,1.9303,1.9297,1.938,1.9283,1.9285,1.9287,0,1.8081,1.8173,1.8322,1.8436,1.8476,1.855,1.8658,1.8739,1.8839,1.8878,1.8954,1.8997,1.9099,1.9081,1.9224,1.9178,1.9232,1.9276,1.9281,1.9297,1.9275,1.9322,1.9408,1.9421,1.9308,1.9306,1.9305,0,1.8103,1.8265,1.8375,1.8424,1.856,1.861,1.867,1.8767,1.8831,1.8925,1.8967,1.9073,1.9131,1.9213,1.9283,1.9263,1.9419,1.9407,1.9456,1.9454,1.9488,1.9485,1.9585,1.9521,1.952,1.952,1.952,0,1.8192,1.8281,1.8386,1.8454,1.8555,1.8626,1.8725,1.8788,1.8874,1.8955,1.9004,1.9079,1.9167,1.9254,1.931,1.9419,1.9445,1.9481,1.9495,1.9477,1.9473,1.9515,1.9512,1.9524,1.9523,1.9522,1.9522,0,1.8234,1.8308,1.8431,1.8548,1.858,1.8649,1.8751,1.8819,1.8879,1.8982,1.901,1.9107,1.9211,1.9289,1.9425,1.9463,1.958,1.9594,1.9545,1.9553,1.9597,1.9592,1.973,1.9751,1.967,1.9671,1.9672,0,1.8287,1.8356,1.848,1.8536,1.8595,1.8686,1.875,1.8823,1.8888,1.9006,1.9059,1.9167,1.9257,1.9422,1.9505,1.961,1.9627,1.9668,1.9643,1.9623,1.9629,1.9624,1.9632,1.9672,1.9672,1.9673,1.9673,0,1.8372,1.8404,1.8494,1.8596,1.867,1.8755,1.8841,1.8885,1.8973,1.9043,1.915,1.9219,1.9357,1.9464,1.9575,1.9638,1.9671,1.9679,1.9697,1.968,1.965,1.9667,1.9556,1.9677,1.9676,1.9676,1.9676,1.9676,1.8422,1.8485,1.8582,1.868,1.8751,1.8829,1.8898,1.8966,1.9056,1.9172,1.921,1.932,1.9417,1.9571,1.9634,1.9722,1.9722,1.9746,1.9753,1.9758,1.9757,1.9634,1.9743,1.9743,1.9743,1.9743,1.9743,0,1.851,1.8574,1.8663,1.8779,1.8856,1.8877,1.8972,1.9036,1.9132,1.9219,1.9305,1.9427,1.953,1.962,1.9727,1.9781,1.9798,1.9806,1.9804,1.9818,1.9751,1.9726,1.979,1.979,1.979,1.979,1.979,1.979,1.8565,1.8673,1.8717,1.8861,1.8924,1.9031,1.9084,1.9156,1.9226,1.9359,1.9444,1.9501,1.959,1.9703,1.9799,1.9823,1.986,1.9865,1.9893,1.9828,1.9823,1.9817,1.9794,1.9872,1.9872,1.9953,1.9954,1.9954]},{"header":{"parameterUnit":"m.s-1","parameterCategory":1,"la1":30.2991,"la2":30.254,"lo1":-89.0895,"lo2":-89.0444,"dy":0.0017,"dx":0.0017,"nx":28,"ny":28,"refTime":"2025-05-27T03:00:00:Z","depth":0,"parameterNumber":3,"parameterNumberName":"V-component_of_WINDS"},"data":[0,0,0,0,0,0,0,0,0,0,0,0,0,0,0,0,0,0,0,0,0,0,0,0,0,0,0,0,0,0,0,0,0,0,0,0,0,0,0,0,0,0,0,0,0,0,0,0,0,0,0,0,0,0,0,0,0,0,0.9182,0.9184,0,0.9368,0.9371,0.9373,0.941,0.9408,0.9407,0.9405,0.96,0.9606,0.9613,0,0,0,0,0,0,0,0,0,0,0,0,0,0.8862,0.8868,0.9182,0.9184,0.9186,0.9368,0.9371,0.9373,0.941,0.9408,0.9406,0.9405,0.9598,0.9606,0.9613,0,0,0,0,0,0,0,0,0,0,0,0,0,0.902,0.887,0.9181,0.9227,0.9232,0.9368,0.9371,0.9374,0.941,0.9408,0.9406,0.9404,0.9595,0.9605,0.9615,0.9719,0,0,0.9644,0.9649,0,0,0,0,0,0,0,0,0.9011,0.9032,0.9218,0.9224,0.9231,0.9363,0.9329,0.949,0.9411,0.9343,0.9405,0.9403,0.9523,0.9539,0.9579,0.9728,0.9736,0.9645,0.9651,0.9656,0.9658,0,0,0,0,0,0,0,0.9,0.9024,0.9256,0.922,0.9228,0.9239,0.9259,0.936,0.9443,0.9349,0.9352,0.9373,0.9526,0.9569,0.9584,0.9739,0.9645,0.9654,0.966,0.9664,0.9987,0.999,0,0,0,0,0,0,0.8981,0.9015,0.925,0.9261,0.9113,0.9247,0.9269,0.9323,0.9442,0.9458,0.9375,0.9374,0.9554,0.9572,0.9591,0.9724,0.9655,0.9665,0.967,0.9984,0.9988,0.9991,0,0,0,0,0,0,0.8974,0.9001,0.9242,0.9139,0.917,0.9254,0.9315,0.9328,0.9371,0.9462,0.9477,0.9403,0.9553,0.9577,0.9687,0.9731,0.9669,0.9678,0.9981,0.9985,0.9989,0.9989,0,0,0,0,0,0,0.8964,0.8998,0.9038,0.9139,0.9176,0.9334,0.9317,0.9333,0.9387,0.9388,0.9492,0.9508,0.9553,0.9672,0.9697,0.9743,0.9686,0.9978,0.9983,0.9988,0.9985,0.9992,0.9998,0,0,0,0,0,0.8953,0.903,0.904,0.9068,0.9227,0.9337,0.9358,0.9407,0.939,0.9432,0.9491,0.9504,0.9721,0.9683,0.9711,0.9761,0.9975,0.9982,0.9987,0.9982,0.9991,0.9998,0,0,0,0,0,0,0.8933,0.9044,0.9056,0.9168,0.9243,0.9343,0.9396,0.9414,0.9495,0.9493,0.9551,0.9575,0.9683,0.9733,0.9688,0.987,0.9848,0.986,0.9834,0.9843,0.9849,0.9837,0.9694,0,0,0,0,0,0.8941,0.902,0.9114,0.9204,0.924,0.9312,0.9362,0.9393,0.9473,0.9505,0.9572,0.965,0.9736,0.9792,0.9876,0.9991,1.0017,1.004,1.0046,1.0051,1.0062,1.0131,1.0143,1.0011,1.0011,1.001,0,0,0.896,0.903,0.9077,0.9202,0.9263,0.9346,0.9338,0.9425,0.9487,0.9519,0.9628,0.9679,0.9771,0.9885,0.9939,0.993,1.0104,1.0059,1.0062,1.0071,1.0138,1.0151,1.0162,1.0015,1.0014,1.0013,0,0,0.9037,0.9096,0.918,0.9241,0.9334,0.9381,0.9401,0.9499,0.9534,0.9644,0.967,0.9746,0.9892,0.9957,1.0009,1.0112,1.0129,1.0137,1.0172,1.0239,1.0249,1.0259,1.0299,1.0312,1.0147,1.0147,1.0147,0,0.9049,0.9172,0.9221,0.9307,0.9363,0.9393,0.948,0.9538,0.9653,0.9692,0.968,0.9866,0.9929,1.0061,1.0086,1.0126,1.0153,1.0127,1.0243,1.0253,1.0263,1.0303,1.0317,1.0148,1.0147,1.0147,1.0147,0,0.9185,0.927,0.9326,0.9437,0.9499,0.9585,0.9648,0.9705,0.9731,0.978,0.9893,0.997,1.0071,1.0104,1.013,1.0241,1.0233,1.0231,1.021,1.0276,1.0314,1.0329,1.0149,1.0148,1.0148,1.0148,0,0,0.9256,0.9392,0.9412,0.9464,0.9569,0.9637,0.9725,0.9824,0.9873,0.9951,1.0029,1.0152,1.0152,1.0211,1.0245,1.0303,1.0384,1.0295,1.0298,1.0312,1.0515,1.0518,1.0534,1.0394,1.0397,1.0399,1.0508,0,0.9348,0.9505,0.9552,0.9685,0.9767,0.9797,0.9875,0.9949,0.9997,1.0074,1.0128,1.0216,1.0207,1.0243,1.0301,1.0361,1.0426,1.0354,1.0471,1.0474,1.045,1.0554,1.0557,1.0656,1.0523,1.0525,1.0527,0,0.9477,0.9558,0.9699,0.9796,0.9832,0.99,0.9996,1.0068,1.0154,1.0185,1.0251,1.0281,1.0376,1.0347,1.0482,1.0432,1.0482,1.0519,1.0524,1.054,1.0507,1.0576,1.0689,1.0705,1.055,1.0549,1.0547,0,0.9519,0.9663,0.9768,0.981,0.9925,0.9973,1.0023,1.0105,1.0163,1.0246,1.0285,1.0378,1.043,1.0503,1.0558,1.0531,1.0689,1.0664,1.0721,1.072,1.0756,1.0754,1.0882,1.0781,1.0781,1.0781,1.0781,0,0.962,0.9706,0.9788,0.9853,0.9951,1.0004,1.0101,1.0153,1.0226,1.0303,1.0334,1.0406,1.0472,1.0553,1.0596,1.0704,1.0726,1.0756,1.0768,1.0756,1.0753,1.0793,1.0789,1.0785,1.0784,1.0783,1.0783,0,0.9685,0.9743,0.9859,0.9958,0.9985,1.0053,1.0139,1.0204,1.0252,1.035,1.0375,1.0453,1.0551,1.0611,1.0735,1.0764,1.0884,1.089,1.0855,1.0861,1.0916,1.0912,1.1078,1.1104,1.0982,1.0983,1.0984,0,0.9747,0.9814,0.992,0.9973,1.0024,1.0108,1.0167,1.0222,1.0282,1.0385,1.0439,1.0538,1.062,1.0775,1.0844,1.094,1.0952,1.1003,1.0966,1.0954,1.0958,1.0954,1.0963,1.101,1.1011,1.1012,1.1013,0,0.9852,0.9878,0.996,1.0054,1.0122,1.0199,1.0275,1.0317,1.0386,1.0452,1.0552,1.0616,1.0742,1.0842,1.0944,1.0998,1.1019,1.1023,1.1043,1.1033,1.1012,1.1029,1.0876,1.102,1.102,1.1019,1.1019,1.1018,0.992,0.9983,1.0068,1.0159,1.0222,1.0293,1.036,1.0418,1.0501,1.0608,1.0635,1.0741,1.0827,1.0966,1.1022,1.1107,1.11,1.1126,1.1134,1.1141,1.1144,1.0995,1.1125,1.1125,1.1125,1.1125,1.1124,0,1.0031,1.0087,1.017,1.0276,1.0349,1.036,1.0445,1.0506,1.0598,1.0676,1.0757,1.0873,1.097,1.1046,1.1147,1.12,1.1213,1.1225,1.1224,1.1237,1.1142,1.1118,1.1214,1.1214,1.1214,1.1214,1.1214,1.1214,1.0097,1.0204,1.024,1.038,1.0436,1.0539,1.0588,1.0655,1.0717,1.0845,1.0926,1.0974,1.1053,1.1159,1.125,1.127,1.1307,1.1319,1.1342,1.1253,1.1243,1.1234,1.1211,1.1325,1.1326,1.143,1.1431,1.1432]}]]